Zurück zum Katalog

STARLINK-34125

AktivKommunikationVLEO
NORAD 63901·PAYLOAD·🇺🇸 United States

Gestartet May 10, 2025 von Cape Canaveral Space Force Station

Loading…

Nächste Überflüge (nächste 24 Stunden)

TLE

AktuellSource: CelesTrak SupGP

Epoche: Sep 14, 2026, 20:51 UTC

1 63901C 25095M   26257.86923611  .00009912  00000+0  35900-3 0  2575
2 63901  43.0000 187.8424 0001411 262.0625 334.5973 15.27575328    12

Verfolge STARLINK-34125 in Echtzeit mit AllMySat

Download on the App Store